Content
SEND FEEDBACK

Daily
Averages
Monthly
Summary
United States of America

ST. LOUIS, MISSOURI


Home > North America > United States > Missouri
Elevation: 535 feet     Latitude: 38 45N     Longitude: 090 22W

WEATHER
 
SELECT A DAY
Number of Records: 196,207;   Date Range: 1/1/95 - 7/7/14
 
SHARE

PRINT THIS DATA

[ ← Previous Day ]
WEATHER ALMANAC - APRIL 3, 2013
[ Next Day → ]
[ °C ]   °F
Weather ElementAverageHighLow
Temperature42.1 °F52 °F (2:54 pm)28 °F (6:54 am)
Dewpoint22.4 °F30 °F (10:54 pm)19 °F (11:54 am)
Humidity48.8 %79 % (3:54 am)27 % (3:54 pm)
Barometer30.33 in30.42 in (7:54 am)30.27 in (8:54 pm)
Wind Speed5.7 mph12.7 mph (1:54 pm)
Wind Gust19.6 mph (2:54 pm)
Weather ElementAverage
Visibility10 mi
Wind DirectionNE (47.3 °)

Weather ElementTotal
Precipitation---
Heating Degree Days25 (Base 65)
Averaged from 22 records on April 3, 2013
WEATHER CONDITIONS BREAKOUT
WIND DIRECTION BREAKOUT
WEATHER BY HOUR - APRIL 3, 2013
[ °C ]   °F
Local TimeTemperatureDewpointHumidityBarometerVisibilityWind DirectionWind SpeedGust SpeedPrecipitationEventsConditions
2:54 AM28.9 °F23.0 °F78 %30.33 in10.0 miCalmClear
3:54 AM30.0 °F24.1 °F79 %30.35 in10.0 miCalmClear
4:54 AM33.1 °F19.9 °F59 %30.34 in10.0 miNE (50°)4.6 mphClear
5:54 AM30.9 °F19.9 °F64 %30.35 in10.0 miCalmClear
6:54 AM28.0 °F19.9 °F72 %30.39 in10.0 miCalmPartly Cloudy
7:54 AM35.1 °F21.9 °F59 %30.42 in10.0 miNE (40°)4.6 mphClear
8:54 AM37.9 °F23.0 °F55 %30.42 in10.0 miENE (60°)6.9 mphClear
9:54 AM42.1 °F21.9 °F45 %30.41 in10.0 miNE (50°)6.9 mphPartly Cloudy
10:54 AM45.0 °F21.9 °F40 %30.41 in10.0 miNE (50°)10.4 mphClear
11:54 AM48.9 °F19.0 °F31 %30.39 in10.0 miNE (50°)5.8 mph18.4 mphPartly Cloudy
12:54 PM50.0 °F19.0 °F29 %30.33 in10.0 miENE (70°)10.4 mphPartly Cloudy
1:54 PM51.1 °F19.0 °F28 %30.34 in10.0 miEast (80°)12.7 mphPartly Cloudy
2:54 PM52.0 °F19.9 °F28 %30.32 in10.0 miNE (40°)11.5 mph19.6 mphClear
3:54 PM52.0 °F19.0 °F27 %30.31 in10.0 miEast (100°)12.7 mphMostly Cloudy
4:54 PM52.0 °F21.0 °F30 %30.30 in10.0 miEast (100°)10.4 mphMostly Cloudy
5:54 PM50.0 °F23.0 °F35 %30.28 in10.0 miEast (80°)10.4 mphOvercast
6:54 PM48.0 °F21.9 °F36 %30.29 in10.0 miEast (100°)8.1 mphOvercast
7:54 PM45.0 °F24.1 °F44 %30.28 in10.0 miEast (80°)5.8 mphOvercast
8:54 PM45.0 °F25.0 °F46 %30.27 in10.0 miEast (90°)3.5 mphOvercast
9:54 PM44.1 °F27.0 °F51 %30.28 in10.0 miCalmMostly Cloudy
10:54 PM39.9 °F30.0 °F68 %30.28 in10.0 miCalmClear
11:54 PM37.9 °F28.9 °F70 %30.27 in10.0 miCalmClear
Hourly data recorded from KSUS, located miles away from St. Louis, Missouri







STORIES FROM OUR PARTNERS